GW3068 Weather Reports


time (UTC)temp
C
wind
direction
speed
KPH
gust
KPH
rain 1hr
cm
rain 24hr
cm
rain mn
cm
humidity
%
barometer
mb
20260503211054 16 323 8.0 32.2 0.00 0.00 0.00 46 1007.5
20260503210555 16 167 11.3 32.2 0.00 0.00 0.00 43 1007.5
20260503210103 16 184 9.7 29.0 0.00 0.00 0.00 45 1007.7
20260503205559 16 184 9.7 32.2 0.00 0.00 0.00 44 1007.6
20260503205055 16 188 9.7 32.2 0.00 0.00 0.00 45 1007.7
20260503204559 16 174 8.0 16.1 0.00 0.00 0.00 44 1007.7
20260503204055 16 209 4.8 20.9 0.00 0.00 0.00 45 1007.8
20260503203557 16 96 8.0 30.6 0.00 0.00 0.00 44 1007.8
20260503203100 16 215 9.7 30.6 0.00 0.00 0.00 44 1007.9
20260503202555 17 196 8.0 25.7 0.00 0.00 0.00 43 1007.8
20260503202055 16 236 8.0 45.1 0.00 0.00 0.00 44 1008.0
20260503201559 16 61 9.7 45.1 0.00 0.00 0.00 42 1008.1
20260503201055 16 190 16.1 32.2 0.00 0.00 0.00 43 1008.1
20260503200554 16 184 11.3 30.6 0.00 0.00 0.00 44 1008.0
20260503200101 16 180 11.3 29.0 0.00 0.00 0.00 44 1008.1
20260503195600 16 190 6.4 30.6 0.00 0.00 0.00 44 1008.2
20260503195055 16 224 6.4 30.6 0.00 0.00 0.00 43 1008.1
20260503194604 16 281 9.7 25.7 0.00 0.00 0.00 46 1008.2
20260503194054 16 177 8.0 29.0 0.00 0.00 0.00 44 1008.4
20260503193555 16 186 11.3 32.2 0.00 0.00 0.00 43 1008.3
20260503193059 16 147 11.3 32.2 0.00 0.00 0.00 44 1008.5
20260503192556 16 182 11.3 30.6 0.00 0.00 0.00 43 1008.5
20260503192055 16 182 12.9 32.2 0.00 0.00 0.00 43 1008.6
20260503191600 16 175 12.9 32.2 0.00 0.00 0.00 42 1008.6
20260503191100 16 162 11.3 29.0 0.00 0.00 0.00 43 1008.9
20260503190559 16 221 9.7 29.0 0.00 0.00 0.00 46 1009.0
20260503190055 16 347 11.3 24.1 0.00 0.00 0.00 42 1009.0
20260503185554 16 261 9.7 24.1 0.00 0.00 0.00 44 1009.2
20260503185101 16 234 11.3 25.7 0.00 0.00 0.00 43 1009.1
20260503184559 16 261 11.3 30.6 0.00 0.00 0.00 42 1009.2
20260503184059 16 180 14.5 30.6 0.00 0.00 0.00 42 1009.2
20260503183558 16 207 9.7 25.7 0.00 0.00 0.00 44 1009.3
20260503183058 16 257 8.0 24.1 0.00 0.00 0.00 41 1009.4
20260503182554 16 244 11.3 29.0 0.00 0.00 0.00 46 1009.5
20260503182054 16 192 11.3 29.0 0.00 0.00 0.00 42 1009.5
20260503181600 16 167 11.3 33.8 0.00 0.00 0.00 43 1009.5
20260503181054 16 186 14.5 33.8 0.00 0.00 0.00 42 1009.5
20260503180557 16 169 11.3 37.0 0.00 0.00 0.00 41 1009.7
20260503175555 16 137 12.9 37.0 0.00 0.00 0.00 41 1009.8
20260503175055 16 249 6.4 20.9 0.00 0.00 0.00 42 1010.0
20260503174559 16 63 9.7 22.5 0.00 0.00 0.00 42 1009.8
20260503174055 16 269 6.4 29.0 0.00 0.00 0.00 41 1010.0
20260503173558 16 333 9.7 29.0 0.00 0.00 0.00 41 1010.2
20260503173110 15 210 9.7 24.1 0.00 0.00 0.00 43 1010.2
20260503172554 15 184 6.4 24.1 0.00 0.00 0.00 46 1010.2
20260503172057 15 264 8.0 22.5 0.00 0.00 0.00 46 1010.4
20260503171559 15 188 6.4 32.2 0.00 0.00 0.00 45 1010.4
20260503171054 15 217 8.0 32.2 0.00 0.00 0.00 45 1010.4
20260503170558 15 182 8.0 27.4 0.00 0.00 0.00 44 1010.5
20260503150557 12 340 4.8 20.9 0.00 0.00 0.00 49 1011.6
20260503131054 10 240 1.6 12.9 0.00 0.00 0.00 56 1011.9
20260503130601 10 273 1.6 19.3 0.00 0.00 0.00 58 1011.9
20260503110557 2 128 3.2 12.9 0.00 0.00 0.00 70 1012.0
20260503110109 2 165 3.2 8.0 0.00 0.00 0.00 69 1012.0
20260503081558 2 168 0.0 6.4 0.00 0.00 0.00 69 1012.8
20260503081055 2 168 1.6 8.0 0.00 0.00 0.00 69 1012.9
20260503080555 1 0 0.0 8.0 0.00 0.00 0.00 71 1012.8
20260503072556 2 169 0.0 8.0 0.00 0.00 0.00 70 1012.9
20260503072055 2 169 1.6 8.0 0.00 0.00 0.00 67 1012.9
20260503071613 2 0 0.0 0.0 0.00 0.00 0.00 68 1013.0
20260503071055 2 0 0.0 0.0 0.00 0.00 0.00 70 1013.0
20260503070558 1 0 0.0 0.0 0.00 0.00 0.00 72 1013.1
20260503060116 1 0 0.0 0.0 0.00 0.00 0.00 78 1013.5
20260503055055 0 0 0.0 0.0 0.00 0.00 0.00 78 1013.6
20260503054601 0 0 0.0 0.0 0.00 0.00 0.00 78 1013.6
20260503054058 0 0 0.0 0.0 0.00 0.00 0.00 78 1013.7
20260503053557 0 0 0.0 0.0 0.00 0.00 0.00 78 1013.7
20260503053055 1 0 0.0 0.0 0.00 0.00 0.00 78 1013.7
20260503052555 1 0 0.0 0.0 0.00 0.00 0.00 78 1013.7
20260503052054 1 0 0.0 0.0 0.00 0.00 0.00 77 1013.7
20260503051555 1 0 0.0 0.0 0.00 0.00 0.00 76 1013.8
20260503051059 1 0 0.0 0.0 0.00 0.00 0.00 75 1013.8
20260503050555 1 0 0.0 0.0 0.00 0.00 0.00 75 1013.8
20260503050055 1 0 0.0 0.0 0.00 0.00 0.00 76 1013.9
20260503045555 1 0 0.0 0.0 0.00 0.00 0.00 76 1013.9
20260503045054 1 0 0.0 0.0 0.00 0.00 0.00 76 1013.9
20260503044558 1 0 0.0 0.0 0.00 0.00 0.00 75 1013.8
20260503044058 1 0 0.0 0.0 0.00 0.00 0.00 75 1013.8
20260503043554 1 0 0.0 0.0 0.00 0.00 0.00 75 1013.8
20260503043103 1 0 0.0 0.0 0.00 0.00 0.00 75 1013.8
20260503042557 1 0 0.0 0.0 0.00 0.00 0.00 75 1013.8
20260503042057 1 0 0.0 0.0 0.00 0.00 0.00 74 1013.9
20260503041557 1 0 0.0 0.0 0.00 0.00 0.00 76 1013.9
20260503041058 1 0 0.0 0.0 0.00 0.00 0.00 77 1014.0
20260503040559 1 0 0.0 0.0 0.00 0.00 0.00 78 1014.0
20260503040114 1 0 0.0 0.0 0.00 0.00 0.00 78 1014.1
20260503035555 1 0 0.0 0.0 0.00 0.00 0.00 78 1014.1
20260503035055 2 0 0.0 0.0 0.00 0.00 0.00 76 1014.1
20260503034559 2 0 0.0 0.0 0.00 0.00 0.00 77 1014.2
20260503034055 2 0 0.0 0.0 0.00 0.00 0.00 77 1014.1
20260503033554 2 0 0.0 0.0 0.00 0.00 0.00 77 1014.1
20260503033058 2 0 0.0 0.0 0.00 0.00 0.00 77 1014.1
20260503032558 2 0 0.0 0.0 0.00 0.00 0.00 76 1014.2
20260503032058 2 0 0.0 0.0 0.00 0.00 0.00 75 1014.2
20260503031605 2 0 0.0 0.0 0.00 0.00 0.00 76 1014.3
20260503031058 2 0 0.0 0.0 0.00 0.00 0.00 76 1014.2
20260503030558 2 0 0.0 0.0 0.00 0.00 0.00 75 1014.2
20260503030058 2 0 0.0 0.0 0.00 0.00 0.00 74 1014.3
20260503025559 2 0 0.0 0.0 0.00 0.00 0.00 73 1014.3
20260503025055 3 0 0.0 3.2 0.00 0.00 0.00 72 1014.3
20260503024554 3 0 0.0 3.2 0.00 0.00 0.00 73 1014.3
20260503024057 3 163 0.0 3.2 0.00 0.00 0.00 70 1014.3
20260503023555 3 0 0.0 3.2 0.00 0.00 0.00 68 1014.4
20260503023102 3 0 0.0 4.8 0.00 0.00 0.00 68 1014.3
20260503022555 3 165 0.0 6.4 0.00 0.00 0.00 67 1014.3
20260503022056 3 0 0.0 6.4 0.00 0.00 0.00 68 1014.4
20260503021603 3 0 0.0 3.2 0.00 0.00 0.00 67 1014.3
20260503021055 3 0 0.0 1.6 0.00 0.00 0.00 68 1014.4
20260503020555 3 0 0.0 3.2 0.00 0.00 0.00 66 1014.3
20260503020059 3 0 0.0 4.8 0.00 0.00 0.00 65 1014.2
20260503015556 4 182 0.0 4.8 0.00 0.00 0.00 64 1014.2
20260503015054 4 0 0.0 3.2 0.00 0.00 0.00 64 1014.2
20260503014610 4 205 0.0 3.2 0.00 0.00 0.00 63 1014.1
20260503014054 4 0 0.0 1.6 0.00 0.00 0.00 64 1014.1
20260503013554 4 0 0.0 1.6 0.00 0.00 0.00 64 1014.1
20260503013059 5 0 0.0 1.6 0.00 0.00 0.00 62 1014.1
20260503012555 5 0 0.0 0.0 0.00 0.00 0.00 61 1014.1
20260503012053 5 0 0.0 1.6 0.00 0.00 0.00 64 1014.1
20260503011600 5 0 0.0 3.2 0.00 0.00 0.00 63 1014.0
20260503011055 5 0 0.0 3.2 0.00 0.00 0.00 59 1014.0
20260503010555 6 0 0.0 0.0 0.00 0.00 0.00 58 1014.0
20260503010059 5 0 0.0 0.0 0.00 0.00 0.00 58 1014.0
20260503005555 5 0 0.0 0.0 0.00 0.00 0.00 58 1013.9
20260503005055 6 0 0.0 0.0 0.00 0.00 0.00 57 1013.9
20260503004555 6 0 0.0 0.0 0.00 0.00 0.00 58 1013.8
20260503004057 6 0 0.0 0.0 0.00 0.00 0.00 58 1013.9
20260503003554 6 0 0.0 0.0 0.00 0.00 0.00 57 1013.8
20260503003054 6 0 0.0 0.0 0.00 0.00 0.00 61 1013.9
20260503002555 6 0 0.0 0.0 0.00 0.00 0.00 60 1013.9
20260503002055 6 0 0.0 0.0 0.00 0.00 0.00 59 1013.8
20260503001606 6 0 0.0 0.0 0.00 0.00 0.00 58 1013.7
20260503001054 7 0 0.0 0.0 0.00 0.00 0.00 56 1013.8
20260503000559 6 0 0.0 0.0 0.00 0.00 0.00 60 1013.7
20260503000054 7 0 0.0 0.0 0.00 0.00 0.00 58 1013.7
20260502235554 7 0 0.0 6.4 0.00 0.00 0.00 56 1013.7
20260502235054 7 0 0.0 6.4 0.00 0.00 0.00 56 1013.7
20260502234558 7 331 0.0 6.4 0.00 0.00 0.00 55 1013.7
20260502234055 7 0 0.0 9.7 0.00 0.00 0.00 58 1013.7
20260502233555 7 0 1.6 9.7 0.00 0.00 0.00 54 1013.7
20260502233054 7 29 0.0 6.4 0.00 0.00 0.00 55 1013.8
20260502232557 7 17 0.0 6.4 0.00 0.00 0.00 54 1013.9
20260502232054 7 352 1.6 6.4 0.00 0.00 0.00 54 1013.9
20260502231557 7 360 1.6 6.4 0.00 0.00 0.00 54 1013.9
20260502231055 7 360 0.0 6.4 0.00 0.00 0.00 53 1013.9
20260502230555 7 317 1.6 8.0 0.00 0.00 0.00 52 1013.9
20260502230058 7 346 1.6 8.0 0.00 0.00 0.00 54 1014.0
20260502225554 7 280 1.6 9.7 0.00 0.00 0.00 53 1014.0
20260502225054 7 0 1.6 9.7 0.00 0.00 0.00 52 1014.0
20260502224604 7 329 1.6 8.0 0.00 0.00 0.00 52 1014.0
20260502224054 7 290 0.0 11.3 0.00 0.00 0.00 53 1014.1
20260502223554 7 333 3.2 11.3 0.00 0.00 0.00 51 1014.1
20260502223054 7 258 3.2 11.3 0.00 0.00 0.00 51 1014.1
20260502222553 7 282 1.6 6.4 0.00 0.00 0.00 52 1014.1
20260502222054 8 300 1.6 8.0 0.00 0.00 0.00 50 1014.1
20260502221553 8 283 1.6 8.0 0.00 0.00 0.00 50 1014.1
20260502221055 8 293 1.6 8.0 0.00 0.00 0.00 50 1014.1
20260502220555 8 0 0.0 8.0 0.00 0.00 0.00 52 1014.0
20260502220054 8 289 1.6 11.3 0.00 0.00 0.00 51 1014.1
20260502215555 8 306 1.6 11.3 0.00 0.00 0.00 53 1013.9
20260502215054 8 352 3.2 12.9 0.00 0.00 0.00 51 1013.9
20260502214555 8 348 1.6 12.9 0.00 0.00 0.00 52 1013.9
20260502214054 8 286 1.6 8.0 0.00 0.00 0.00 51 1013.9
20260502213554 8 290 1.6 8.0 0.00 0.00 0.00 51 1013.9
20260502213100 8 297 3.2 11.3 0.00 0.00 0.00 51 1013.9
20260502212554 8 340 3.2 12.9 0.00 0.00 0.00 50 1013.9
20260502212055 8 272 1.6 12.9 0.00 0.00 0.00 49 1013.9
20260502211603 8 242 3.2 12.9 0.00 0.00 0.00 50 1013.9